カタログに戻る

PEGASUS DEB

運用中PO
NORAD 39318·DEBRIS·🇺🇸 United States

打ち上げ May 19, 1994 から Vandenberg Space Force Base

Loading…

次のパス (今後24時間)

TLE

最新Source: Space-Track

元期: Sep 12, 2026, 13:36 UTC

1 39318U 94029AFD 26255.56731690  .00000930  00000-0  12968-3 0  9996
2 39318  81.9471 347.7625 0185607  91.9270 330.4571 14.65338060290870

AllMySatでPEGASUS DEBをリアルタイム追跡

Download on the App Store